Ireland West Airport Knock, Ireland

12:55 AM IST on May 25, 2017 (GMT +0100)
Connaught

Weather History for EIKN - October, 2012

Change the Weather History Date:

Friday, October 26, 2012

  Actual Average Record
Temperature  
Mean Temperature 40 °F -  
Max Temperature 43 °F - - ()
Min Temperature 35 °F - - ()
Degree Days  
Heating Degree Days 26    
Moisture  
Dew Point 31 °F    
Average Humidity 71    
Maximum Humidity 93    
Minimum Humidity 46    
Precipitation  
Precipitation 0.00 in - - ()
Sea Level Pressure  
Sea Level Pressure 30.17 in    
Wind  
Wind Speed 9 mph ()    
Max Wind Speed 16 mph    
Max Gust Speed -    
Visibility 7.2 miles    
Events      
T = Trace of Precipitation, MM = Missing Value Source: Averaged Metar Reports

Daily Weather History Graph

Daily Weather History Graph

Search for Another Location

Airport or City:

Trip Planner

Search our weather history database for the weather conditions in past years. The results will help you decide how hot, cold, wet, or windy it might be!

Date:

Astronomy

Oct. 26, 2012 Rise Set
Actual Time 8:24 AM IST 6:12 PM IST
Civil Twilight 7:47 AM IST 6:49 PM IST
Nautical Twilight 7:06 AM IST 7:30 PM IST
Astronomical Twilight 6:25 AM IST 8:11 PM IST
Moon 4:42 PM IST (10/26) 4:43 AM IST (10/26)
Length of Visible Light 11h 01m
Length of Day
9h 48m
Waxing Gibbous, 89% of the Moon is Illuminated
Oct 26
Waxing Gibbous
Oct 29
Full
Nov 7
Last Quarter
Nov 13
New
Nov 20
First Quarter

Hourly Weather History & Observations

Time (IST) Temp. Windchill Dew Point Humidity Pressure Visibility Wind Dir Wind Speed Gust Speed Precip Events Conditions
1:00 AM 44 °F - 40 °F 81% 30.17 in - NE 8.9 mph - -  
6:00 AM 37.4 °F 31.4 °F 35.6 °F 93% 30.15 in 6.2 mi NNE 8.1 mph - N/A   Scattered Clouds
7:00 AM 36 °F - 33 °F 86% 30.19 in 19 mi NNE 11.2 mph - -   Scattered Clouds
7:00 AM 35.6 °F 27.5 °F 33.8 °F 93% 30.15 in 6.2 mi NNE 11.5 mph - N/A   Partly Cloudy
7:30 AM 35.6 °F 27.5 °F 32.0 °F 87% 30.15 in 6.2 mi NNE 11.5 mph - N/A   Partly Cloudy
8:00 AM 35.6 °F 28.0 °F 32.0 °F 87% 30.15 in - NNE 10.4 mph - N/A   Clear
8:30 AM 35.6 °F 28.0 °F 32.0 °F 87% 30.15 in - NNE 10.4 mph - N/A   Clear
9:00 AM 35.6 °F 28.0 °F 32.0 °F 87% 30.15 in - NNE 10.4 mph - N/A   Clear
9:30 AM 35.6 °F 28.0 °F 32.0 °F 87% 30.18 in - NNE 10.4 mph - N/A   Clear
10:00 AM 37.4 °F 30.3 °F 32.0 °F 81% 30.18 in 6.2 mi NNE 10.4 mph - N/A   Partly Cloudy
10:30 AM 37.4 °F 31.4 °F 32.0 °F 81% 30.18 in 6.2 mi NE 8.1 mph - N/A   Partly Cloudy
11:00 AM 39.2 °F 33.0 °F 32.0 °F 75% 30.18 in 6.2 mi NNE 9.2 mph - N/A   Partly Cloudy
11:30 AM 41.0 °F 33.5 °F 30.2 °F 65% 30.18 in 6.2 mi NNE 13.8 mph - N/A   Partly Cloudy
12:00 PM 41.0 °F 32.8 °F 28.4 °F 61% 30.18 in 6.2 mi NE 16.1 mph - N/A   Partly Cloudy
12:30 PM 42.8 °F 35.8 °F 28.4 °F 57% 30.18 in 6.2 mi NE 13.8 mph - N/A   Partly Cloudy
1:00 PM 42 °F - 28 °F 46% 30.21 in 37 mi NE 13.4 mph - -   Mostly Cloudy
1:00 PM 42.8 °F 35.8 °F 28.4 °F 57% 30.18 in 6.2 mi NE 13.8 mph - N/A   Mostly Cloudy
1:30 PM 42.8 °F 36.2 °F 28.4 °F 57% 30.18 in 6.2 mi NE 12.7 mph - N/A   Mostly Cloudy
2:00 PM 42.8 °F 36.6 °F 28.4 °F 57% 30.15 in 6.2 mi NE 11.5 mph - N/A   Mostly Cloudy
2:30 PM 42.8 °F 36.6 °F 28.4 °F 57% 30.15 in 6.2 mi NE 11.5 mph - N/A   Mostly Cloudy
3:00 PM 42.8 °F 37.5 °F 30.2 °F 61% 30.15 in 6.2 mi North 9.2 mph - N/A   Scattered Clouds
3:30 PM 42.8 °F 35.8 °F 30.2 °F 61% 30.15 in 6.2 mi NNE 13.8 mph - N/A   Mostly Cloudy
4:00 PM 42.8 °F 36.6 °F 32.0 °F 66% 30.15 in 6.2 mi North 11.5 mph - N/A   Mostly Cloudy
4:30 PM 41.0 °F 35.8 °F 32.0 °F 70% 30.15 in 6.2 mi NNE 8.1 mph - N/A   Scattered Clouds
5:00 PM 41.0 °F 35.8 °F 30.2 °F 65% 30.15 in 6.2 mi NNE 8.1 mph - N/A   Mostly Cloudy
5:30 PM 41.0 °F 35.8 °F 28.4 °F 61% 30.15 in 6.2 mi NNE 8.1 mph - N/A   Mostly Cloudy
6:00 PM 41.0 °F 35.8 °F 30.2 °F 65% 30.15 in 6.2 mi North 8.1 mph - N/A   Mostly Cloudy
7:00 PM 38 °F - 30 °F 62% 30.21 in 16 mi North 6.7 mph - -   Partly Cloudy